Flight Track Log - Related Links

Times and Time Zones

All times are in EDT time to prevent confusion due to time zone crossing. See the SKW6526 flight status page for this flight to view local times or setup timezone preferences in your user account.

Time Position Orientation Groundspeed Altitude Reporting Facility
EDT Latitude Longitude Course Direction KTS MPH feet Rate Location/Type
Sun 11:34:52 AM 33.9317 -118.4442 90° East 178 205 1,700  Level Los Angeles Center
Sun 11:35:53 AM 33.8847 -118.5183 233° Southwest 261 300 3,900 2,683 Climbing Los Angeles Center
Sun 11:36:55 AM 33.8131 -118.5564 204° Southwest 273 314 7,200 2,952 Climbing Los Angeles Center
Sun 11:37:00 AM 33.6941 -118.5302 134° Southeast  Level FlightAware Approximate
Sun 11:37:57 AM 33.7356 -118.5339 166° South 288 331 10,000  Level Los Angeles Center
Sun 11:38:00 AM 33.6586 -118.3966 116° Southeast  Level FlightAware Approximate
Sun 11:38:59 AM 33.6794 -118.4642 134° Southeast 321 369 12,000  Level Los Angeles Center
Sun 11:39:00 AM 33.6334 -118.2605 90° East  Level FlightAware Approximate
Sun 11:40:00 AM 33.6333 -118.1176 90° East  Level FlightAware Approximate
Sun 11:40:01 AM 33.6722 -118.3567 95° East 329 379 14,200  Level Los Angeles Center
Sun 11:41:03 AM 33.6725 -118.2228 90° East 345 397 17,000 2,226 Climbing Los Angeles Center
Sun 11:42:05 AM 33.6711 -118.1042 91° East 354 407 18,800 1,659 Climbing Los Angeles Center
Sun 11:43:06 AM 33.6697 -118.0044 91° East 367 422 20,400 1,854 Climbing Los Angeles Center
Sun 11:44:08 AM 33.6675 -117.8497 91° East 385 443 22,600 1,742 Climbing Los Angeles Center
Sun 11:45:10 AM 33.6658 -117.7450 91° East 391 450 24,000 1,161 Climbing Los Angeles Center
Sun 11:46:12 AM 33.6628 -117.5586 91° East 399 459 25,000 532 Climbing Los Angeles Center
Sun 11:47:14 AM 33.6600 -117.4250 91° East 401 461 25,100 581 Climbing Los Angeles Center
Sun 11:48:16 AM 33.6553 -117.2803 92° East 430 495 26,200 1,306 Climbing Los Angeles Center
Sun 11:49:18 AM 33.6536 -117.1369 91° East 433 498 27,800 1,210 Climbing Los Angeles Center
Sun 11:50:20 AM 33.6494 -116.9914 92° East 438 504 28,700 1,113 Climbing Los Angeles Center
Sun 11:51:22 AM 33.6456 -116.8197 92° East 448 516 30,100 1,306 Climbing Los Angeles Center
Sun 11:52:24 AM 33.6369 -116.6719 94° East 446 513 31,400 1,306 Climbing Los Angeles Center
Sun 11:53:26 AM 33.6289 -116.5233 94° East 444 511 32,800 1,258 Climbing Los Angeles Center
Sun 11:54:28 AM 33.6194 -116.3767 94° East 441 507 34,000 968 Climbing Los Angeles Center
Sun 11:55:30 AM 33.6111 -116.2283 94° East 445 512 34,800 484 Climbing Los Angeles Center
Sun 11:56:32 AM 33.6011 -116.0753 94° East 456 525 35,000 97 Climbing Los Angeles Center
Sun 11:57:34 AM 33.5892 -115.8886 94° East 465 535 35,000  Level Los Angeles Center
Sun 11:58:36 AM 33.5792 -115.7339 94° East 466 536 35,000  Level Los Angeles Center
Sun 11:59:50 AM 33.5683 -115.5531 94° East 456 525 35,000  Level Los Angeles Center
Sun 12:00:53 PM 33.5578 -115.4058 95° East 447 514 35,000  Level Los Angeles Center
Sun 12:01:54 PM 33.5494 -115.2867 95° East 447 514 35,000  Level Los Angeles Center
Sun 12:02:57 PM 33.5372 -115.1106 95° East 443 510 35,000  Level Los Angeles Center
Sun 12:03:59 PM 33.5264 -114.9644 95° East 441 507 35,000 -48 Level Los Angeles Center
Sun 12:05:01 PM 33.5153 -114.7867 94° East 445 512 34,900 -919 Descending Los Angeles Center
Sun 12:06:03 PM 33.5036 -114.6358 95° East 457 526 33,100 -1,983 Descending Los Angeles Center
Sun 12:06:56 PM 33.4961 -114.5164 94° East 467 537 31,100 -2,765 Descending Albuquerque Center
Sun 12:07:58 PM 33.4836 -114.3278 94° East 471 542 27,800 -2,710 Descending Albuquerque Center
Sun 12:09:00 PM 33.4731 -114.1797 95° East 455 524 25,500 -1,355 Descending Albuquerque Center
Sun 12:10:02 PM 33.4583 -114.0494 98° East 422 486 25,000 -242 Descending Albuquerque Center
Sun 12:11:04 PM 33.4303 -113.9217 105° East 407 468 25,000 -435 Level Albuquerque Center
Sun 12:12:06 PM 33.4033 -113.7908 104° East 405 466 24,100 -1,161 Descending Albuquerque Center
Sun 12:13:08 PM 33.3789 -113.6633 103° East 401 461 22,600 -1,645 Descending Albuquerque Center
Sun 12:14:10 PM 33.3492 -113.5178 104° East 388 447 20,700 -1,694 Descending Albuquerque Center
Sun 12:15:12 PM 33.3239 -113.3961 104° East 383 441 19,100 -1,452 Descending Albuquerque Center
Sun 12:16:14 PM 33.3003 -113.2806 104° East 372 428 17,700 -1,065 Descending Albuquerque Center
Sun 12:17:16 PM 33.2786 -113.1708 103° East 349 402 16,900 -968 Descending Albuquerque Center
Sun 12:18:18 PM 33.2758 -113.0619 92° East 332 382 15,700 -1,403 Descending Albuquerque Center
Sun 12:19:20 PM 33.2775 -112.9525 89° East 330 380 14,000 -1,597 Descending Albuquerque Center
Sun 12:20:22 PM 33.2803 -112.8511 88° East 314 361 12,400 -1,632 Descending Albuquerque Center
Sun 12:21:25 PM 33.3106 -112.7431 71° East 293 337 10,600 -1,200 Descending Albuquerque Center
Sun 12:22:27 PM 33.3394 -112.6603 67° East 276 318 9,900 -871 Descending Albuquerque Center
Sun 12:23:29 PM 33.3697 -112.5844 64° Northeast 266 306 8,800 -919 Descending Albuquerque Center
Sun 12:24:31 PM 33.3867 -112.5000 76° East 262 302 8,000 -677 Descending Albuquerque Center
Sun 12:25:33 PM 33.3989 -112.4203 80° East 247 284 7,400 -1,016 Descending Albuquerque Center
Sun 12:26:35 PM 33.4131 -112.3239 80° East 247 284 5,900 -1,355 Descending Albuquerque Center
Sun 12:27:37 PM 33.4253 -112.2456 79° East 241 277 4,600 -1,113 Descending Albuquerque Center
Sun 12:28:39 PM 33.4372 -112.1719 79° East 229 264 3,600 -919 Descending Albuquerque Center
Sun 12:29:41 PM 33.4406 -112.1111 86° East 190 219 2,700 -871 Descending Albuquerque Center

Login

Don't have an account? Register now (free) for customized features, flight alerts, and more!